Chamberlain, SD

5:25 AM CDT on August 19, 2017 (GMT -0500)
Chamberlain

Weather History for K9V9 - January, 2013

Change the Weather History Date:

Monday, January 21, 2013

  Actual Average Record
Temperature  
Mean Temperature 4 °F -  
Max Temperature 9 °F 27 °F 51 °F (2002)
Min Temperature 0 °F 8 °F -4 °F (2008)
Degree Days  
Heating Degree Days 60    
Moisture  
Dew Point -6 °F    
Average Humidity 61    
Maximum Humidity 67    
Minimum Humidity 57    
Precipitation  
Precipitation 0.01 in - - ()
Sea Level Pressure  
Sea Level Pressure 30.46 in    
Wind  
Wind Speed 11 mph (NW)    
Max Wind Speed 17 mph    
Max Gust Speed -    
Averages and records for this station are not official NWS values.
T = Trace of Precipitation, MM = Missing Value Source: NWS Daily Summary

Daily Weather History Graph

Daily Weather History Graph

Search for Another Location

Airport or City:

Trip Planner

Search our weather history database for the weather conditions in past years. The results will help you decide how hot, cold, wet, or windy it might be!

Date:

Astronomy

Jan. 21, 2013 Rise Set
Actual Time 8:04 AM CST 5:33 PM CST
Civil Twilight 7:32 AM CST 6:05 PM CST
Nautical Twilight 6:57 AM CST 6:40 PM CST
Astronomical Twilight 6:23 AM CST 7:14 PM CST
Moon 1:13 PM CST (1/21) 3:34 AM CST (1/21)
Length of Visible Light 10h 32m
Length of Day
9h 29m
Waxing Gibbous, 75% of the Moon is Illuminated
Jan 21
Waxing Gibbous
Jan 26
Full
Feb 3
Last Quarter
Feb 10
New
Feb 17
First Quarter

Hourly Weather History & Observations

Time (CST) Temp. Windchill Dew Point Humidity Pressure Visibility Wind Dir Wind Speed Gust Speed Precip Events Conditions
12:52 AM -0.0 °F -20.7 °F -11.9 °F 57% 30.55 in - NNW 17.3 mph - N/A   Unknown
1:52 AM -0.0 °F -17.1 °F -11.9 °F 57% 30.54 in - NW 11.5 mph - N/A   Unknown
2:52 AM -0.0 °F -17.1 °F -11.9 °F 57% 30.53 in - NW 11.5 mph - N/A   Unknown
3:52 AM 1.0 °F -19.3 °F -11.0 °F 57% 30.51 in - NNW 17.3 mph - N/A   Unknown
4:52 AM -0.0 °F -17.1 °F -11.9 °F 57% 30.50 in - NNW 11.5 mph - N/A   Unknown
5:52 AM 1.0 °F -16.6 °F -11.0 °F 57% 30.48 in - NW 12.7 mph - N/A   Unknown
6:52 AM 1.0 °F -16.6 °F -9.9 °F 60% 30.48 in - WNW 12.7 mph - N/A   Unknown
7:52 AM 1.9 °F -14.7 °F -9.9 °F 58% 30.48 in - NW 11.5 mph - N/A   Unknown
8:52 AM 1.9 °F -12.9 °F -9.9 °F 58% 30.50 in - NNW 9.2 mph - N/A   Unknown
9:52 AM 3.0 °F -11.5 °F -9.0 °F 57% 30.50 in - NW 9.2 mph - N/A   Unknown
10:52 AM 3.9 °F -13.7 °F -6.0 °F 64% 30.51 in - NW 13.8 mph - N/A   Unknown
11:52 AM 5.0 °F -10.0 °F -4.0 °F 66% 30.50 in - WNW 10.4 mph - N/A   Unknown
12:52 PM 6.1 °F -10.2 °F -2.9 °F 67% 30.48 in - NNW 12.7 mph - N/A   Unknown
1:52 PM 7.0 °F -9.1 °F -4.0 °F 61% 30.44 in - NNW 12.7 mph - 0.01 in   Unknown
2:52 PM 8.1 °F -6.2 °F -4.0 °F 58% 30.44 in - NNW 10.4 mph - N/A   Unknown
3:52 PM 8.1 °F -4.3 °F -2.9 °F 61% 30.43 in - North 8.1 mph - N/A   Unknown
4:52 PM 8.1 °F -0.5 °F -2.9 °F 61% 30.43 in - NW 4.6 mph - N/A   Unknown
5:52 PM 8.1 °F -3.2 °F -2.9 °F 61% 30.42 in - NW 6.9 mph - N/A   Unknown
6:52 PM 8.1 °F -2.0 °F -2.0 °F 64% 30.42 in - NNW 5.8 mph - N/A   Unknown
7:52 PM 8.1 °F - -2.0 °F 64% 30.41 in - Calm Calm - N/A   Unknown
8:52 PM 9.0 °F - -2.0 °F 61% 30.40 in - Calm Calm - N/A   Unknown
9:52 PM 8.1 °F - -2.0 °F 64% 30.39 in - Calm Calm - N/A   Unknown
10:52 PM 8.1 °F 1.4 °F -0.9 °F 67% 30.40 in - South 3.5 mph - N/A   Unknown
11:52 PM 8.1 °F - -0.9 °F 67% 30.39 in - Calm Calm - N/A   Unknown